Moline, IL

9:14 AM CDT on April 26, 2017 (GMT -0500)
Quad-City International

Weather History for KMLI - October, 2013

Change the Weather History Date:

Saturday, October 5, 2013

  Actual Average Record
Temperature  
Mean Temperature 62 °F 57 °F  
Max Temperature 75 °F 69 °F 89 °F (1922)
Min Temperature 48 °F 46 °F 28 °F (1980)
Degree Days  
Heating Degree Days 3 9  
Month to date heating degree days 3 41  
Since 1 July heating degree days 81 145  
Cooling Degree Days 0 1  
Month to date cooling degree days 27 5  
Year to date cooling degree days 998 994  
Growing Degree Days 14 (Base 50)    
Moisture  
Dew Point 62 °F    
Average Humidity 77    
Maximum Humidity 93    
Minimum Humidity 60    
Precipitation  
Precipitation 0.03 in 0.09 in 1.47 in (1976)
Month to date precipitation 0.83 0.46  
Year to date precipitation 34.40 30.71  
Snow  
Snow 0.00 in 0.00 in - ()
Month to date snowfall 0.0 0.0  
Since 1 July snowfall 0.0 0.0  
Since 1 September snowfall 0.0 0.0  
Snow Depth 0.00 in    
Sea Level Pressure  
Sea Level Pressure 29.84 in    
Wind  
Wind Speed 8 mph (SSW)    
Max Wind Speed 21 mph    
Max Gust Speed 28 mph    
Visibility 10 miles    
Events      
T = Trace of Precipitation, MM = Missing Value Source: NWS Daily Summary

Daily Weather History Graph

Daily Weather History Graph

Search for Another Location

Airport or City:

Trip Planner

Search our weather history database for the weather conditions in past years. The results will help you decide how hot, cold, wet, or windy it might be!

Date:

Astronomy

Oct. 05, 2013 Rise Set
Actual Time 7:03 AM CDT 6:36 PM CDT
Civil Twilight 6:35 AM CDT 7:04 PM CDT
Nautical Twilight 6:03 AM CDT 7:36 PM CDT
Astronomical Twilight 5:31 AM CDT 8:08 PM CDT
Moon 7:43 AM CDT (10/5) 6:54 PM CDT (10/5)
Length of Visible Light 12h 28m
Length of Day
11h 33m
New Moon, 1% of the Moon is Illuminated
Oct 5
New Moon
Oct 11
First Quarter
Oct 18
Full
Oct 26
Last Quarter
Nov 3
New

Hourly Weather History & Observations

Time (CDT) Temp. Dew Point Humidity Pressure Visibility Wind Dir Wind Speed Gust Speed Precip Events Conditions
12:52 AM 73.9 °F 66.0 °F 76% 29.87 in 10.0 mi South 8.1 mph - N/A   Clear
1:52 AM 72.0 °F 66.0 °F 81% 29.87 in 10.0 mi South 5.8 mph - N/A   Clear
2:52 AM 73.0 °F 66.9 °F 81% 29.84 in 10.0 mi South 8.1 mph - N/A   Clear
3:52 AM 72.0 °F 66.9 °F 84% 29.83 in 10.0 mi South 8.1 mph - N/A   Clear
4:52 AM 72.0 °F 66.9 °F 84% 29.85 in 10.0 mi South 9.2 mph - N/A   Clear
5:52 AM 72.0 °F 66.9 °F 84% 29.86 in 10.0 mi South 5.8 mph - N/A   Clear
6:52 AM 71.1 °F 66.9 °F 87% 29.86 in 9.0 mi SSW 4.6 mph - N/A   Clear
7:52 AM 71.1 °F 68.0 °F 90% 29.86 in 8.0 mi South 8.1 mph - N/A   Clear
8:52 AM 72.0 °F 68.0 °F 87% 29.86 in 9.0 mi SSW 6.9 mph - N/A   Partly Cloudy
9:16 AM 73.4 °F 68.0 °F 83% 29.88 in 9.0 mi SW 9.2 mph - N/A   Scattered Clouds
9:52 AM 72.0 °F 69.1 °F 91% 29.86 in 8.0 mi South 3.5 mph - 0.03 in   Mostly Cloudy
10:26 AM 73.4 °F 69.8 °F 88% 29.86 in 8.0 mi SW 3.5 mph - 0.00 in   Mostly Cloudy
10:52 AM 73.0 °F 70.0 °F 90% 29.86 in 8.0 mi South 3.5 mph - 0.00 in   Overcast
11:13 AM 73.4 °F 69.8 °F 88% 29.86 in 10.0 mi South 5.8 mph - N/A   Mostly Cloudy
11:28 AM 75.2 °F 69.8 °F 83% 29.87 in 10.0 mi SSW 6.9 mph - N/A   Scattered Clouds
11:52 AM 75.0 °F 69.1 °F 82% 29.85 in 10.0 mi SW 6.9 mph - N/A   Mostly Cloudy
12:52 PM 73.9 °F 64.9 °F 73% 29.84 in 10.0 mi SSW 9.2 mph - N/A   Overcast
1:52 PM 73.0 °F 64.0 °F 73% 29.81 in 10.0 mi WSW 8.1 mph - N/A   Mostly Cloudy
2:52 PM 73.9 °F 63.0 °F 68% 29.79 in 10.0 mi SSW 10.4 mph - N/A   Partly Cloudy
3:44 PM 71.6 °F 60.8 °F 69% 29.81 in 10.0 mi SW 13.8 mph 20.7 mph N/A   Mostly Cloudy
3:52 PM 70.0 °F 61.0 °F 73% 29.80 in 10.0 mi SW 9.2 mph 20.7 mph N/A   Mostly Cloudy
4:52 PM 68.0 °F 59.0 °F 73% 29.80 in 10.0 mi WSW 9.2 mph 19.6 mph N/A   Overcast
5:10 PM 66.2 °F 57.2 °F 73% 29.80 in 10.0 mi SW 11.5 mph 16.1 mph N/A   Overcast
5:52 PM 64.9 °F 53.1 °F 65% 29.80 in 10.0 mi WSW 12.7 mph 19.6 mph N/A   Overcast
6:52 PM 62.1 °F 48.9 °F 62% 29.81 in 10.0 mi SW 8.1 mph - N/A   Overcast
7:52 PM 61.0 °F 48.0 °F 62% 29.83 in 10.0 mi SSW 9.2 mph - N/A   Overcast
8:52 PM 59.0 °F 46.9 °F 64% 29.84 in 10.0 mi WSW 8.1 mph - N/A   Partly Cloudy
9:52 PM 55.9 °F 48.0 °F 75% 29.83 in 10.0 mi WSW 8.1 mph - N/A   Clear
10:52 PM 54.0 °F 46.9 °F 77% 29.83 in 10.0 mi WSW 10.4 mph - N/A   Clear
11:52 PM 52.0 °F 39.9 °F 63% 29.84 in 10.0 mi West 9.2 mph - N/A   Clear